• In United Kingdom
  • List of Countries
  • For 7 days
  • Water Temperature
  • Satellite Maps
  • Weather Map
  • Weather Widgets
  • user-avatar
    Login

    Hourly Weather Armagh

    Today, 20 June, Wednesday

    Time Temperature Precipitation Wind Pressure Humidity
    00:00 +16°C° 0 mm 6 mps 753 mmHg 97%
    01:00 +16°C° 0.5 mm 6 mps 753 mmHg 96%
    02:00 +15°C° 0.5 mm 6 mps 753 mmHg 96%
    03:00 +15°C° 0.5 mm 6 mps 753 mmHg 96%
    04:00 +14°C° 0.3 mm 6 mps 754 mmHg 96%
    05:00 +13°C° 0.3 mm 5 mps 754 mmHg 96%
    06:00 +10°C° 0 mm 5 mps 755 mmHg 93%
    07:00 +10°C° 0 mm 5 mps 756 mmHg 88%
    08:00 +12°C° 0 mm 5 mps 757 mmHg 83%
    09:00 +12°C° 0 mm 5 mps 758 mmHg 78%
    10:00 +13°C° 0 mm 5 mps 759 mmHg 74%
    11:00 +14°C° 0 mm 5 mps 759 mmHg 69%
    12:00 +14°C° 0 mm 5 mps 760 mmHg 65%
    13:00 +14°C° 0 mm 5 mps 760 mmHg 65%
    14:00 +14°C° 0 mm 5 mps 760 mmHg 64%
    15:00 +14°C° 0 mm 5 mps 761 mmHg 64%
    16:00 +13°C° 0 mm 5 mps 761 mmHg 66%
    17:00 +13°C° 0 mm 5 mps 761 mmHg 69%
    18:00 +12°C° 0 mm 4 mps 761 mmHg 71%
    19:00 +10°C° 0 mm 5 mps 761 mmHg 74%
    20:00 +10°C° 0 mm 5 mps 762 mmHg 76%
    21:00 +9°C° 0 mm 5 mps 762 mmHg 79%
    22:00 +8°C° 0 mm 5 mps 762 mmHg 80%
    23:00 +7°C° 0 mm 5 mps 763 mmHg 81%

    Tomorrow, 21 June, Thursday

    Time Temperature Precipitation Wind Pressure Humidity
    00:00 +6°C° 0 mm 5 mps 763 mmHg 82%
    01:00 +6°C° 0 mm 4 mps 763 mmHg 83%
    02:00 +6°C° 0 mm 4 mps 764 mmHg 84%
    03:00 +6°C° 0 mm 4 mps 764 mmHg 85%
    04:00 +6°C° 0 mm 4 mps 764 mmHg 84%
    05:00 +7°C° 0 mm 5 mps 765 mmHg 82%
    06:00 +8°C° 0 mm 5 mps 765 mmHg 81%
    07:00 +9°C° 0 mm 5 mps 766 mmHg 75%
    08:00 +10°C° 0 mm 5 mps 766 mmHg 70%
    09:00 +13°C° 0 mm 5 mps 767 mmHg 65%
    10:00 +13°C° 0 mm 5 mps 767 mmHg 63%
    11:00 +14°C° 0 mm 5 mps 767 mmHg 61%
    12:00 +14°C° 0 mm 5 mps 768 mmHg 59%
    13:00 +15°C° 0 mm 5 mps 768 mmHg 59%
    14:00 +15°C° 0 mm 5 mps 768 mmHg 59%
    15:00 +15°C° 0 mm 5 mps 768 mmHg 59%
    16:00 +15°C° 0 mm 5 mps 769 mmHg 62%
    17:00 +14°C° 0 mm 5 mps 769 mmHg 65%
    18:00 +14°C° 0 mm 4 mps 769 mmHg 68%
    19:00 +12°C° 0 mm 4 mps 769 mmHg 73%
    20:00 +11°C° 0 mm 4 mps 770 mmHg 79%
    21:00 +9°C° 0 mm 3 mps 770 mmHg 84%
    22:00 +8°C° 0 mm 3 mps 770 mmHg 88%
    23:00 +7°C° 0 mm 3 mps 770 mmHg 91%

    Day after tomorrow, 22 June, Friday

    Time Temperature Precipitation Wind Pressure Humidity
    00:00 +5°C° 0 mm 3 mps 770 mmHg 95%
    01:00 +5°C° 0 mm 3 mps 770 mmHg 95%
    02:00 +6°C° 0 mm 2 mps 770 mmHg 96%
    03:00 +6°C° 0 mm 2 mps 770 mmHg 96%
    04:00 +6°C° 0 mm 2 mps 770 mmHg 94%
    05:00 +7°C° 0 mm 2 mps 770 mmHg 93%
    06:00 +8°C° 0 mm 2 mps 770 mmHg 91%
    07:00 +10°C° 0 mm 3 mps 770 mmHg 84%
    08:00 +11°C° 0 mm 3 mps 770 mmHg 78%
    09:00 +13°C° 0 mm 3 mps 770 mmHg 71%
    10:00 +14°C° 0 mm 3 mps 770 mmHg 67%
    11:00 +16°C° 0 mm 3 mps 770 mmHg 62%
    12:00 +17°C° 0 mm 3 mps 770 mmHg 57%
    13:00 +18°C° 0 mm 3 mps 770 mmHg 57%
    14:00 +18°C° 0 mm 3 mps 769 mmHg 57%
    15:00 +18°C° 0 mm 3 mps 769 mmHg 56%
    16:00 +18°C° 0 mm 3 mps 769 mmHg 60%
    17:00 +18°C° 0 mm 3 mps 769 mmHg 63%
    18:00 +17°C° 0 mm 3 mps 769 mmHg 67%
    19:00 +15°C° 0 mm 2 mps 769 mmHg 74%
    20:00 +13°C° 0 mm 2 mps 769 mmHg 81%
    21:00 +12°C° 0 mm 2 mps 769 mmHg 88%
    22:00 +10°C° 0 mm 2 mps 769 mmHg 91%
    23:00 +10°C° 0 mm 1 mps 769 mmHg 93%

    23 June, Saturday

    Time Temperature Precipitation Wind Pressure Humidity
    00:00 +9°C° 0 mm 1 mps 769 mmHg 95%
    01:00 +8°C° 0 mm 1 mps 768 mmHg 95%
    02:00 +8°C° 0 mm 1 mps 768 mmHg 95%
    03:00 +8°C° 0 mm 1 mps 768 mmHg 95%
    04:00 +8°C° 0 mm 1 mps 768 mmHg 94%
    05:00 +9°C° 0 mm 1 mps 768 mmHg 92%
    06:00 +10°C° 0 mm 1 mps 768 mmHg 90%
    07:00 +12°C° 0 mm 1 mps 768 mmHg 82%
    08:00 +14°C° 0 mm 1 mps 767 mmHg 74%
    09:00 +16°C° 0 mm 1 mps 767 mmHg 67%
    10:00 +18°C° 0 mm 1 mps 767 mmHg 62%
    11:00 +19°C° 0 mm 1 mps 767 mmHg 58%
    12:00 +20°C° 0 mm 1 mps 767 mmHg 54%
    13:00 +20°C° 0 mm 1 mps 767 mmHg 54%
    14:00 +21°C° 0 mm 1 mps 766 mmHg 54%
    15:00 +21°C° 0 mm 1 mps 766 mmHg 54%
    16:00 +20°C° 0 mm 2 mps 766 mmHg 58%
    17:00 +20°C° 0 mm 2 mps 766 mmHg 62%
    18:00 +19°C° 0 mm 2 mps 766 mmHg 67%
    19:00 +17°C° 0 mm 2 mps 766 mmHg 74%
    20:00 +16°C° 0 mm 2 mps 766 mmHg 80%
    21:00 +14°C° 0 mm 2 mps 766 mmHg 87%
    22:00 +13°C° 0 mm 1 mps 765 mmHg 89%
    23:00 +12°C° 0 mm 1 mps 765 mmHg 91%

    24 June, Sunday

    Time Temperature Precipitation Wind Pressure Humidity
    00:00 +11°C° 0 mm 1 mps 765 mmHg 93%
    01:00 +11°C° 0 mm 1 mps 765 mmHg 93%
    02:00 +11°C° 0 mm 1 mps 765 mmHg 94%
    03:00 +10°C° 0 mm 1 mps 765 mmHg 94%
    04:00 +11°C° 0 mm 1 mps 764 mmHg 92%
    05:00 +12°C° 0 mm 1 mps 764 mmHg 90%
    06:00 +13°C° 0 mm 1 mps 764 mmHg 88%
    07:00 +15°C° 0 mm 1 mps 764 mmHg 80%
    08:00 +18°C° 0 mm 1 mps 764 mmHg 73%
    09:00 +20°C° 0 mm 1 mps 765 mmHg 65%
    10:00 +20°C° 0 mm 2 mps 765 mmHg 63%
    11:00 +21°C° 0 mm 2 mps 765 mmHg 60%
    12:00 +23°C° 0 mm 2 mps 765 mmHg 58%
    13:00 +23°C° 0 mm 2 mps 764 mmHg 59%
    14:00 +24°C° 0 mm 2 mps 764 mmHg 60%
    15:00 +24°C° 0 mm 2 mps 764 mmHg 61%
    16:00 +24°C° 0 mm 2 mps 764 mmHg 65%
    17:00 +23°C° 0 mm 2 mps 764 mmHg 68%
    18:00 +22°C° 0 mm 3 mps 764 mmHg 72%
    19:00 +20°C° 0 mm 2 mps 764 mmHg 78%
    20:00 +19°C° 0 mm 2 mps 764 mmHg 85%
    21:00 +17°C° 0 mm 2 mps 764 mmHg 91%
    22:00 +16°C° 0 mm 2 mps 764 mmHg 92%
    23:00 +15°C° 0 mm 2 mps 764 mmHg 93%

    25 June, Monday

    Time Temperature Precipitation Wind Pressure Humidity
    00:00 +15°C° 0 mm 1 mps 764 mmHg 95%
    01:00 +14°C° 0 mm 1 mps 764 mmHg 95%
    02:00 +14°C° 0 mm 1 mps 764 mmHg 95%
    03:00 +14°C° 0 mm 1 mps 764 mmHg 95%
    04:00 +14°C° 0 mm 1 mps 764 mmHg 94%
    05:00 +15°C° 0 mm 1 mps 764 mmHg 92%
    06:00 +16°C° 0 mm 1 mps 764 mmHg 91%
    07:00 +18°C° 0 mm 1 mps 764 mmHg 85%
    08:00 +19°C° 0 mm 2 mps 764 mmHg 79%
    09:00 +20°C° 0 mm 2 mps 764 mmHg 72%
    10:00 +21°C° 0 mm 2 mps 764 mmHg 68%
    11:00 +22°C° 0 mm 3 mps 764 mmHg 64%
    12:00 +24°C° 0 mm 3 mps 763 mmHg 59%
    13:00 +24°C° 0 mm 3 mps 763 mmHg 60%
    14:00 +24°C° 0 mm 3 mps 763 mmHg 60%
    15:00 +25°C° 0 mm 3 mps 763 mmHg 60%
    16:00 +24°C° 0 mm 3 mps 763 mmHg 63%
    17:00 +24°C° 0 mm 3 mps 763 mmHg 67%
    18:00 +24°C° 0 mm 3 mps 763 mmHg 71%
    19:00 +21°C° 0 mm 2 mps 763 mmHg 77%
    20:00 +19°C° 0 mm 2 mps 763 mmHg 83%
    21:00 +17°C° 0 mm 2 mps 763 mmHg 89%
    22:00 +17°C° 0 mm 2 mps 763 mmHg 91%
    23:00 +16°C° 0 mm 2 mps 763 mmHg 92%
    Show more